This demonstration page uses our WeatherBlox Daily Observations layout. Learn more.

Left ArrowRight Arrow

47.50024, -111.30081

Hourly Observations for August 13, 2022

Temp ( °F °C ) Dew Point ( °F °C ) Humidity (%) Winds ( mph kmh ) Pressure ( in mb ) Visibility ( mi km ) Precip ( " mm )
12:53 am 00:53 Clear 63 17.2 57 13.9 81 81 E 6 9 29.98 1015 10 16 0.00 0.00
1:53 am 01:53 Clear 62 16.7 56 13.3 80 80 SE 6 9 29.98 1015 10 16 0.00 0.00
2:53 am 02:53 Clear 60 15.6 57 13.9 90 90 SW 10 17 29.98 1015 10 16 0.00 0.00
3:53 am 03:53 Clear 57 13.9 55 12.8 93 93 SW 8 13 29.98 1015 10 16 0.00 0.00
4:53 am 04:53 Clear 56 13.3 54 12.2 93 93 W 5 7 29.98 1015 10 16 0.00 0.00
5:53 am 05:53 Clear 55 12.8 53 11.7 93 93 SW 8 13 29.98 1015 10 16 0.00 0.00
6:53 am 06:53 Sunny 58 14.4 55 12.8 90 90 SW 6 9 29.97 1015 10 16 0.00 0.00
7:53 am 07:53 Sunny 65 18.3 59 15 81 81 SW 3 6 30.01 1016 10 16 0.00 0.00
8:53 am 08:53 Sunny 68 20 59 15 73 73 Calm 30.01 1016 10 16 0.00 0.00
9:53 am 09:53 Sunny 74 23.3 60 15.6 62 62 VRB 3 6 30.00 1016 10 16 0.00 0.00
10:53 am 10:53 Sunny 80 26.7 53 11.7 39 39 Calm 29.97 1015 10 16 0.00 0.00
11:53 am 11:53 Sunny 80 26.7 58 14.4 47 47 E 3 6 29.98 1015 10 16 0.00 0.00
12:53 pm 12:53 Sunny 87 30.6 49 9.4 27 27 S 8 13 29.96 1014 10 16 0.00 0.00
1:53 pm 13:53 Sunny 88 31.1 47 8.3 24 24 VRB 6 9 29.92 1013 10 16 0.00 0.00
2:53 pm 14:53 Sunny 93 33.9 44 6.7 19 19 SE 10 17 29.89 1012 10 16 0.00 0.00
3:53 pm 15:53 Sunny 92 33.3 45 7.2 20 20 ESE 6 9 29.88 1012 10 16 0.00 0.00
4:53 pm 16:53 Mostly Sunny 92 33.3 44 6.7 19 19 Calm 29.87 1011 10 16 0.00 0.00
5:53 pm 17:53 Sunny 93 33.9 45 7.2 19 19 VRB 3 6 29.85 1011 10 16 0.00 0.00
6:53 pm 18:53 Partly Cloudy 90 32.2 47 8.3 23 23 N 16 26 29.85 1011 10 16 0.00 0.00
7:53 pm 19:53 Sunny 84 28.9 49 9.4 30 30 NNE 12 19 29.86 1011 10 16 0.00 0.00
8:53 pm 20:53 Clear 79 26.1 47 8.3 32 32 ENE 8 13 29.88 1012 10 16 0.00 0.00
9:53 pm 21:53 Clear 72 22.2 45 7.2 38 38 Calm 29.91 1013 10 16 0.00 0.00
10:53 pm 22:53 Clear 66 18.9 48 8.9 52 52 S 5 7 29.91 1013 10 16 0.00 0.00
11:53 pm 23:53 Clear 68 20 49 9.4 50 50 SSW 12 19 29.91 1013 10 16 0.00 0.00

Powered by AerisWeather